Ionia, MI

2:48 AM EST on November 15, 2019 (GMT -0500)
Ionia

Weather History for KY70 - September, 2019

Change the Weather History Date:

Wednesday, September 25, 2019

  Actual Average (KGRR) Record (KGRR)
Temperature  
Mean Temperature 68 °F -  
Max Temperature 74 °F 67 °F 91 °F (2017)
Min Temperature 62 °F 46 °F 29 °F (1947)
Cooling Degree Days 3    
Growing Degree Days 18 (Base 50)    
Moisture  
Dew Point 57 °F    
Average Humidity 68    
Maximum Humidity 88    
Minimum Humidity 51    
Precipitation  
Precipitation 0.00 in - - ()
Sea Level Pressure  
Sea Level Pressure 29.73 in    
Wind  
Wind Speed 10 mph ()    
Max Wind Speed 21 mph    
Max Gust Speed 29 mph    
Visibility 10.0 miles    
Events      
Averages and records for this station are not official NWS values.
T = Trace of Precipitation, MM = Missing Value Source: Averaged Metar Reports

Daily Weather History Graph

Daily Weather History Graph

Search for Another Location

Airport or City:

Astronomy

Sep. 25, 2019 Rise Set
Actual Time 7:30 AM EDT 7:32 PM EDT
Civil Twilight 7:02 AM EDT 8:00 PM EDT
Nautical Twilight 6:29 AM EDT 8:33 PM EDT
Astronomical Twilight 5:55 AM EDT 9:07 PM EDT
Moon 3:15 AM EDT (9/25) 6:10 PM EDT (9/25)
Length of Visible Light 12h 58m
Length of Day
12h 01m
Waning Crescent, 14% of the Moon is Illuminated
Sep 25
Waning Crescent
Sep 28
New
Oct 5
First Quarter
Oct 13
Full
Oct 21
Last Quarter

Hourly Weather History & Observations

Time (EDT) Temp. Dew Point Humidity Pressure Visibility Wind Dir Wind Speed Gust Speed Precip Events Conditions
12:17 AM 64.9 °F 57.4 °F 76% 29.79 in 10.0 mi SSW 8.1 mph - N/A   Clear
12:35 AM 65.3 °F 57.2 °F 75% 29.79 in 10.0 mi SSW 6.9 mph - N/A   Clear
12:55 AM 64.0 °F 57.2 °F 78% 29.79 in 10.0 mi SSW 6.9 mph - N/A   Clear
1:15 AM 64.4 °F 56.8 °F 76% 29.79 in 10.0 mi SSW 6.9 mph - N/A   Clear
1:20 AM 64.4 °F 56.8 °F 76% 29.80 in 10.0 mi SSW 6.9 mph - N/A   Clear
1:38 AM 64.8 °F 56.5 °F 74% 29.80 in 10.0 mi SSW 6.9 mph - N/A   Clear
1:56 AM 65.5 °F 56.3 °F 72% 29.80 in 10.0 mi SW 8.1 mph - N/A   Clear
2:15 AM 65.7 °F 56.1 °F 71% 29.79 in 10.0 mi SW 10.4 mph 16.1 mph N/A   Clear
2:16 AM 65.7 °F 55.9 °F 71% 29.79 in 10.0 mi SW 11.5 mph 16.1 mph N/A   Clear
2:35 AM 65.7 °F 55.9 °F 71% 29.78 in 10.0 mi SW 12.7 mph 18.4 mph N/A   Clear
2:59 AM 65.7 °F 55.6 °F 70% 29.77 in 10.0 mi SSW 12.7 mph - N/A   Clear
3:17 AM 66.0 °F 55.4 °F 69% 29.77 in 10.0 mi SSW 10.4 mph 18.4 mph N/A   Clear
3:35 AM 66.2 °F 55.4 °F 68% 29.78 in 10.0 mi SW 11.5 mph 19.6 mph N/A   Clear
3:55 AM 66.2 °F 55.0 °F 67% 29.78 in 10.0 mi SW 10.4 mph 18.4 mph N/A   Clear
3:56 AM 66.2 °F 55.0 °F 67% 29.78 in 10.0 mi SW 10.4 mph 18.4 mph N/A   Clear
4:19 AM 66.2 °F 54.9 °F 67% 29.77 in 10.0 mi SW 10.4 mph 19.6 mph N/A   Clear
4:37 AM 65.8 °F 54.7 °F 67% 29.77 in 10.0 mi South 8.1 mph - N/A   Clear
4:55 AM 63.7 °F 55.4 °F 74% 29.77 in 10.0 mi South 6.9 mph - N/A   Clear
5:15 AM 62.8 °F 55.4 °F 77% 29.77 in 10.0 mi South 6.9 mph - N/A   Clear
5:35 AM 62.6 °F 55.4 °F 77% 29.75 in 10.0 mi South 9.2 mph - N/A   Clear
5:58 AM 62.8 °F 55.4 °F 77% 29.74 in 10.0 mi South 8.1 mph - N/A   Scattered Clouds
6:16 AM 62.6 °F 55.0 °F 76% 29.73 in 10.0 mi South 9.2 mph - N/A   Scattered Clouds
6:35 AM 63.0 °F 54.7 °F 74% 29.72 in 10.0 mi South 12.7 mph 18.4 mph N/A   Scattered Clouds
6:36 AM 63.0 °F 54.7 °F 74% 29.72 in 10.0 mi South 12.7 mph 18.4 mph N/A   Scattered Clouds
6:55 AM 63.5 °F 54.5 °F 72% 29.71 in 10.0 mi South 11.5 mph 18.4 mph N/A   Clear
6:56 AM 63.5 °F 54.5 °F 72% 29.71 in 10.0 mi South 11.5 mph 18.4 mph N/A   Clear
7:19 AM 64.2 °F 53.8 °F 69% 29.71 in 10.0 mi South 13.8 mph - N/A   Scattered Clouds
7:37 AM 64.0 °F 53.6 °F 69% 29.71 in 10.0 mi South 12.7 mph 18.4 mph N/A   Scattered Clouds
7:55 AM 64.8 °F 53.1 °F 66% 29.71 in 10.0 mi SSW 11.5 mph 18.4 mph N/A   Scattered Clouds
8:15 AM 65.7 °F 52.7 °F 63% 29.71 in 10.0 mi SSW 11.5 mph 19.6 mph N/A   Overcast
8:35 AM 66.4 °F 52.2 °F 60% 29.71 in 10.0 mi SSW 11.5 mph - N/A   Overcast
8:58 AM 67.1 °F 51.8 °F 58% 29.70 in 10.0 mi South 11.5 mph 18.4 mph N/A   Overcast
9:16 AM 67.8 °F 51.6 °F 56% 29.70 in 10.0 mi SSW 15.0 mph 20.7 mph N/A   Overcast
9:35 AM 68.2 °F 51.4 °F 55% 29.71 in 10.0 mi SSW 15.0 mph 20.7 mph N/A   Overcast
9:36 AM 68.2 °F 51.6 °F 55% 29.71 in 10.0 mi SSW 16.1 mph 21.9 mph N/A   Overcast
9:55 AM 68.0 °F 51.3 °F 55% 29.70 in 10.0 mi SSW 15.0 mph 19.6 mph N/A   Mostly Cloudy
9:56 AM 68.0 °F 51.3 °F 55% 29.70 in 10.0 mi SSW 13.8 mph 19.6 mph N/A   Mostly Cloudy
10:19 AM 69.1 °F 51.3 °F 53% 29.70 in 10.0 mi SSW 17.3 mph 24.2 mph N/A   Mostly Cloudy
10:37 AM 69.3 °F 51.1 °F 52% 29.71 in 10.0 mi SW 12.7 mph 28.8 mph N/A   Overcast
10:55 AM 70.2 °F 51.1 °F 51% 29.70 in 10.0 mi SW 20.7 mph 28.8 mph N/A   Overcast
11:15 AM 70.0 °F 51.3 °F 51% 29.71 in 10.0 mi SW 13.8 mph 24.2 mph N/A   Overcast
11:16 AM 70.0 °F 51.3 °F 51% 29.70 in 10.0 mi SW 15.0 mph 24.2 mph N/A   Overcast
11:35 AM 69.8 °F 51.6 °F 52% 29.71 in 10.0 mi SW 16.1 mph 23.0 mph N/A   Overcast
11:58 AM 69.8 °F 53.1 °F 55% 29.71 in 10.0 mi SW 18.4 mph - N/A   Overcast
12:16 PM 69.4 °F 53.8 °F 57% 29.70 in 10.0 mi SW 15.0 mph 23.0 mph N/A   Overcast
12:35 PM 70.3 °F 54.1 °F 56% 29.70 in 10.0 mi SSW 16.1 mph 21.9 mph N/A   Overcast
12:55 PM 69.8 °F 55.0 °F 59% 29.70 in 10.0 mi SW 15.0 mph 24.2 mph N/A   Overcast
1:19 PM 69.3 °F 56.8 °F 65% 29.71 in 10.0 mi SW 15.0 mph 21.9 mph N/A   Overcast
1:37 PM 68.9 °F 57.9 °F 68% 29.70 in 10.0 mi SW 20.7 mph 27.6 mph N/A   Overcast
1:55 PM 68.9 °F 59.2 °F 71% 29.70 in 10.0 mi SW 16.1 mph 27.6 mph N/A   Overcast
2:15 PM 68.9 °F 59.9 °F 73% 29.70 in 10.0 mi WSW 18.4 mph 24.2 mph N/A   Overcast
2:35 PM 69.8 °F 60.6 °F 73% 29.70 in 10.0 mi SW 19.6 mph 26.5 mph N/A   Overcast
2:58 PM 71.8 °F 60.8 °F 68% 29.69 in 10.0 mi SW 20.7 mph 26.5 mph N/A   Mostly Cloudy
3:16 PM 71.2 °F 60.3 °F 68% 29.70 in 10.0 mi WSW 20.7 mph 25.3 mph N/A   Mostly Cloudy
3:35 PM 73.6 °F 60.3 °F 63% 29.69 in 10.0 mi WSW 19.6 mph 25.3 mph N/A   Mostly Cloudy
3:36 PM 73.6 °F 60.1 °F 63% 29.69 in 10.0 mi WSW 18.4 mph 25.3 mph N/A   Mostly Cloudy
3:55 PM 73.0 °F 59.7 °F 63% 29.69 in 10.0 mi WSW 15.0 mph 21.9 mph N/A   Mostly Cloudy
3:56 PM 73.0 °F 59.7 °F 63% 29.69 in 10.0 mi WSW 13.8 mph 21.9 mph N/A   Mostly Cloudy
4:19 PM 74.3 °F 59.7 °F 60% 29.69 in 10.0 mi SW 17.3 mph 24.2 mph N/A   Overcast
4:37 PM 72.9 °F 59.7 °F 63% 29.69 in 10.0 mi WSW 12.7 mph 20.7 mph N/A   Mostly Cloudy
4:55 PM 74.1 °F 58.1 °F 57% 29.70 in 10.0 mi WSW 18.4 mph 21.9 mph N/A   Overcast
4:56 PM 74.1 °F 57.9 °F 57% 29.70 in 10.0 mi West 18.4 mph 21.9 mph N/A   Overcast
5:15 PM 74.3 °F 58.5 °F 58% 29.70 in 10.0 mi WSW 16.1 mph - N/A   Scattered Clouds
5:16 PM 74.3 °F 58.5 °F 58% 29.70 in 10.0 mi WSW 15.0 mph - N/A   Scattered Clouds
5:35 PM 73.8 °F 57.7 °F 57% 29.70 in 10.0 mi WSW 15.0 mph 19.6 mph N/A   Scattered Clouds
5:40 PM 73.9 °F 58.1 °F 58% 29.70 in 10.0 mi West 11.5 mph 19.6 mph N/A   Scattered Clouds
5:58 PM 73.4 °F 57.9 °F 58% 29.71 in 10.0 mi West 11.5 mph - N/A   Scattered Clouds
6:15 PM 72.0 °F 58.1 °F 62% 29.71 in 10.0 mi WSW 12.7 mph 23.0 mph N/A   Clear
6:35 PM 72.0 °F 59.4 °F 64% 29.72 in 10.0 mi WSW 10.4 mph - N/A   Scattered Clouds
6:36 PM 72.0 °F 59.4 °F 64% 29.72 in 10.0 mi WSW 10.4 mph - N/A   Scattered Clouds
6:55 PM 70.3 °F 59.9 °F 69% 29.72 in 10.0 mi SW 8.1 mph - N/A   Clear
6:56 PM 70.2 °F 59.9 °F 70% 29.72 in 10.0 mi WSW 8.1 mph - N/A   Clear
7:19 PM 69.3 °F 60.4 °F 73% 29.73 in 10.0 mi SW 6.9 mph - N/A   Clear
7:37 PM 68.9 °F 60.6 °F 75% 29.73 in 10.0 mi SW 6.9 mph - N/A   Clear
7:55 PM 68.9 °F 60.8 °F 75% 29.73 in 10.0 mi SW 6.9 mph - N/A   Clear
8:15 PM 68.2 °F 60.8 °F 77% 29.73 in 10.0 mi SW 5.8 mph - N/A   Clear
8:35 PM 68.2 °F 60.8 °F 77% 29.74 in 10.0 mi SW 6.9 mph - N/A   Clear
8:58 PM 67.6 °F 61.0 °F 79% 29.74 in 10.0 mi SW 6.9 mph - N/A   Clear
9:16 PM 67.5 °F 61.3 °F 81% 29.75 in 10.0 mi WSW 6.9 mph - N/A   Scattered Clouds
9:35 PM 67.3 °F 61.3 °F 81% 29.75 in 10.0 mi SW 6.9 mph - N/A   Scattered Clouds
9:36 PM 67.3 °F 61.3 °F 81% 29.75 in 10.0 mi SW 5.8 mph - N/A   Scattered Clouds
9:55 PM 67.1 °F 61.3 °F 82% 29.76 in 10.0 mi West 4.6 mph - N/A   Clear
9:56 PM 67.1 °F 61.3 °F 82% 29.76 in 10.0 mi West 4.6 mph - N/A   Clear
10:18 PM 66.6 °F 61.3 °F 83% 29.76 in 10.0 mi West 4.6 mph - N/A   Clear
10:37 PM 66.7 °F 61.3 °F 83% 29.76 in 10.0 mi West 4.6 mph - N/A   Scattered Clouds
10:55 PM 65.3 °F 61.7 °F 88% 29.77 in 10.0 mi West 5.8 mph - N/A   Scattered Clouds
10:56 PM 65.3 °F 61.7 °F 88% 29.77 in 10.0 mi West 5.8 mph - N/A   Scattered Clouds
11:15 PM 66.2 °F 61.0 °F 83% 29.77 in 10.0 mi West 5.8 mph - N/A   Mostly Cloudy
11:16 PM 66.2 °F 61.0 °F 83% 29.77 in 10.0 mi West 4.6 mph - N/A   Mostly Cloudy
11:39 PM 66.2 °F 60.4 °F 82% 29.78 in 10.0 mi West 5.8 mph - N/A   Mostly Cloudy
11:57 PM 66.2 °F 59.2 °F 78% 29.78 in 10.0 mi West 8.1 mph - N/A   Overcast